Simultaneous Nadir Overpasses (SNOs) Predictions

Prediction of SNOs between NOAA-20 and AQUA Satellite Orbit:

Table of predicted SNOs for the next 14.0 days since TLE Epoch: 12/26/2020
Index Date (NOAA-20) Time (NOAA-20) Lat,Lon (NOAA-20) SZA (NOAA-20 ) Date (AQUA) Time (AQUA) Lat,Lon (AQUA) SZA (AQUA ) Distance(km) Time Diff (sec)
1 12/27/2020 22:13:06 75.75, 84.91 120.26 12/27/2020 22:13:23 75.75, 84.94 120.24 0.66 17
2 12/27/2020 23:03:30 -76.74,-104.26 60.90 12/27/2020 23:02:30 -76.74,-104.24 60.85 0.83 60
3 12/30/2020 13:39:37 -74.84, 30.61 58.80 12/30/2020 13:40:45 -74.84, 30.66 58.88 1.59 68
4 12/30/2020 14:29:54 76.10,-158.14 119.77 12/30/2020 14:29:45 76.11,-158.11 119.77 0.56 9
5 01/02/2021 05:56:23 -75.29, 147.71 59.45 01/02/2021 05:57:05 -75.30, 147.76 59.51 1.44 42
6 01/02/2021 06:46:41 76.49, -40.97 119.16 01/02/2021 06:46:06 76.49, -40.97 119.20 0.26 35
7 01/04/2021 22:13:08 -75.74, -95.12 60.16 01/04/2021 22:13:24 -75.74, -95.10 60.18 0.58 16
8 01/04/2021 23:03:27 76.87, 76.28 118.50 01/04/2021 23:02:26 76.87, 76.21 118.57 1.78 61
9 01/07/2021 13:39:38 74.77,-149.56 120.69 01/07/2021 13:40:44 74.78,-149.47 120.61 2.72 66



Historial Predications of SNOs between NOAA-20 and AQUA
